This demonstration page uses our WeatherBlox Daily Observations layout. Learn more.

Left ArrowRight Arrow

41.55636, -103.73856

Hourly Observations for May 19, 2022

Temp ( °F °C ) Dew Point ( °F °C ) Humidity (%) Winds ( mph kmh ) Pressure ( in mb ) Visibility ( mi km ) Precip ( " mm )
12:58 am 00:58 Clear 61 16.1 32 -0.2 33 33 W 8 13 29.61 1003 10 16 0.00 0.00
1:58 am 01:58 Partly Cloudy 54 12 32 0.1 44 44 W 6 9 29.59 1002 10 16 0.00 0.00
2:58 am 02:58 Clear 56 13.3 28 -2.2 34 34 SW 3 6 29.55 1001 10 16 0.00 0.00
3:58 am 03:58 Mostly Cloudy 59 15.1 28 -2.4 30 30 WSW 12 19 29.51 999 10 16 0.00 0.00
4:58 am 04:58 Cloudy 67 19.3 24 -4.2 20 20 WSW 17 28 29.48 998 10 16 0.00 0.00
5:58 am 05:58 Sunny 64 18 25 -4 22 22 WSW 18 30 29.46 998 10 16 0.00 0.00
6:58 am 06:58 Sunny 67 19.2 27 -3 22 22 WSW 22 35 29.44 997 10 16 0.00 0.00
7:58 am 07:58 Sunny 71 21.5 29 -1.8 21 21 WSW 17 28 29.44 997 10 16 0.00 0.00
8:58 am 08:58 Sunny 73 22.5 29 -1.6 20 20 WSW 22 35 29.42 996 10 16 0.00 0.00
9:58 am 09:58 Sunny 74 23.2 28 -2.4 18 18 W 23 37 29.41 996 10 16 0.00 0.00
10:58 am 10:58 Sunny 76 24.5 25 -3.8 15 15 WSW 25 41 29.39 995 10 16 0.00 0.00
11:58 am 11:58 Sunny 76 24.2 29 -1.6 18 18 SW 20 31 29.36 994 10 16 0.00 0.00
1:58 pm 13:58 Cloudy 79 26 26 -3.6 14 14 W 16 26 29.28 992 10 16 0.00 0.00
2:58 pm 14:58 Mostly Cloudy 74 23.3 39 3.8 28 28 N 23 37 29.27 991 10 16 0.00 0.00
3:58 pm 15:58 Partly Cloudy 65 18.4 40 4.2 39 39 NNE 26 43 29.30 992 10 16 0.00 0.00
4:58 pm 16:58 Mostly Cloudy 60 15.3 37 2.5 42 42 N 25 41 29.34 994 10 16 0.00 0.00
5:58 pm 17:58 Partly Cloudy 52 11.3 33 0.7 48 48 N 22 35 29.45 997 10 16 0.00 0.00
6:58 pm 18:58 Partly Cloudy 46 7.9 31 -0.6 55 55 N 16 26 29.48 998 10 16 0.00 0.00
7:58 pm 19:58 Sunny 42 5.8 30 -0.9 62 62 N 18 30 29.49 999 10 16 0.00 0.00
8:58 pm 20:58 Mostly Cloudy 39 3.7 32 0 77 77 N 17 28 29.54 1000 10 16 0.00 0.00
9:58 pm 21:58 Cloudy 39 4 33 0.5 78 78 N 14 22 29.54 1000 10 16 0.00 0.00
10:58 pm 22:58 Cloudy with Drizzle 39 3.7 33 0.7 81 81 NNW 14 22 29.55 1001 10 16 0.00 0.00
11:58 pm 23:58 Cloudy with Light Rain 35 1.5 33 0.6 94 94 WNW 12 19 29.54 1000 10 16 0.01 0.25

Powered by AerisWeather